Regional Weather Roundup
Issued by NWS Northern Indiana

Home | Current Version | Previous Version | Graphics & Text | Print | Product List | Glossary On
Versions: 1 2 3 4 5 6 7 8 9 10 11 12 13 14 15 16 17 18 19 20 21 22 23 24 25 26 27 28 29 30 31 32 33 34 35 36 37 38 39 40 41 42 43 44 45 46 47 48 49 50
000
ASUS43 KIWX 202101
RWRIWX

KIWX WEATHER ROUNDUP
NATIONAL WEATHER SERVICE NORTHERN INDIANA
500 PM EDT WED SEP 20 2017

NOTE: "FAIR" INDICATES FEW OR NO CLOUDS BELOW 12,000 FEET WITH NO
SIGNIFICANT WEATHER AND/OR OBSTRUCTIONS TO VISIBILITY.

* THESE STATIONS ARE NOT UNDER NWS QUALITY CONTROL. THEY ALSO MAY NOT
  REPORT WEATHER SUCH AS PRECIPITATION OR FOG.

INZ001>027-202200-
NORTHERN INDIANA

CITY           SKY/WX    TMP DP  RH WIND       PRES   REMARKS
GARY*          MOSUNNY   91  63  38 S12       29.89F
SOUTH BEND     SUNNY     86  69  56 S9        29.94F
ELKHART*       MOSUNNY   86  68  54 S6        29.94F
GOSHEN         SUNNY     86  66  51 S9        29.95F
FORT WAYNE     MOSUNNY   85  67  54 S6        29.98F

$$
INZ028>050-202200-
CENTRAL INDIANA

CITY           SKY/WX    TMP DP  RH WIND       PRES   REMARKS
LAFAYETTE      MOSUNNY   89  69  51 S9        29.92F
KOKOMO*        SUNNY     86  70  58 S8        29.98F
MUNCIE*        SUNNY     88  66  48 CALM      29.99S
INDIANAPOLIS   MOSUNNY   89  68  49 S6        29.97S

$$
MIZ043>046-050>051-056>058-064>065-071>073-077>080-202200-
SOUTHWEST LOWER MICHIGAN

CITY           SKY/WX    TMP DP  RH WIND       PRES   REMARKS
BATTLE CREEK   SUNNY     86  66  51 SW9       29.96F
BENTON HARBOR  SUNNY     87  69  54 SE10      29.91F
COLDWATER*     SUNNY     84  64  52 SW3       29.97F
HILLSDALE*     CLOUDY    81  64  57 W3        29.99S
HOLLAND        SUNNY     88  66  48 SE13      29.91F
GRAND RAPIDS   MOSUNNY   87  66  49 S12G21    29.92F
KALAMAZOO      SUNNY     86  65  49 S8        29.95F
STURGIS*       MOSUNNY   84  69  60 S9        29.96S
THREE RIVERS*  FAIR      86  67  53 S6        29.95F

$$
OHZ001>008-015>018-024>025-202200-
NORTHWEST OHIO

CITY           SKY/WX    TMP DP  RH WIND       PRES   REMARKS
DEFIANCE       SUNNY     83  66  56 W5        29.97F
FINDLAY        CLOUDY    84  62  47 W8        29.98S
TOLEDO EXPRESS MOSUNNY   84  66  54 W7        29.97F
TOLEDO METCALF MOSUNNY   81  70  69 E7        29.98S
LIMA           MOSUNNY   83  66  56 W9        30.00R

$$
AND FOR LAKE MICHIGAN COASTAL AND OPEN LAKE BUOY OBSERVATIONS

STATION/POSITION TEMP    WIND        PRES    VSBY  WAVE
                 AIR SEA DIR/SP/G                  HT/PER
                 (F)     (DEG/KT/KT) (MB)    (MI)  (FT/S)
CALUMET HARBOR    89     180/ 13/ 18 1011.2F
MICHIGAN CITY     87     170/ 13/ 15   N/A
BURNS HARBOR      89     190/ 13/ 17 1012.5F
SAINT JOSEPH      87     200/  4/ 10 1013.9
SOUTH LAKE BUOY   72 69  120/ 14/ 16 1012.0          2/ 3
4 MI NW BRIDGMAN  78 70  190/  8/ 12 1012.1F         1
MICHIGAN CITY     81 70  190/ 10/ 12   N/A           1

$$
&&




USA.gov is the U.S. government's official web portal to all federal, state and local government web resources and services.